OK,32,57,887,32,2014-10-01T01:40:00,0,28072657,182955
OK,32,57,887,32,2014-10-01T01:45:00,0,28073104,182955
OK,32,57,887,32,2014-10-01T01:50:00,0,28073552,182955
OK,32,57,887,32,2014-10-01T01:55:00,0,28073870,182955
OK,32,57,887,32,2014-10-01T02:00:00,0,28074319,182955
OK,32,57,887,32,2014-10-01T02:05:00,0,28074760,182955
OK,32,57,887,32,2014-10-01T02:10:00,0,28075208,182955
OK,32,57,887,32,2014-10-01T02:15:00,0,28075657,182955
OK,32,57,887,32,2014-10-01T02:20:00,0,28076042,182955
OK,32,57,887,32,2014-10-01T02:25:00,0,28076489,182955
OK,32,57,887,32,2014-10-01T02:30:00,0,28076938,182955
OK,32,57,887,32,2014-10-01T02:35:00,0,28077387,182955
OK,32,57,887,32,2014-10-01T02:40:00,0,28077790,182955
OK,32,57,887,32,2014-10-01T02:45:00,0,28078239,182955
OK,32,57,887,32,2014-10-01T02:50:00,0,28078684,182955
OK,32,57,887,32,2014-10-01T02:55:00,0,28079133,182955
OK,32,57,887,32,2014-10-01T03:00:00,0,28079575,182955
OK,32,57,887,32,2014-10-01T03:05:00,0,28080024,182955
OK,32,57,887,32,2014-10-01T03:10:00,0,28080358,182955
OK,29,63,887,29,2014-10-01T03:15:00,0,28080807,182955
OK,28,65,887,28,2014-10-01T03:20:00,2,28081256,182955
OK,30,61,887,30,2014-10-01T03:25:00,2,28081703,182955
OK,31,59,887,31,2014-10-01T03:30:00,1,28082152,182955
OK,28,65,887,28,2014-10-01T03:35:00,2,28082585,182955
OK,29,63,887,29,2014-10-01T03:40:00,1,28083017,182955
OK,27,68,887,27,2014-10-01T03:45:00,1,28083466,182955
OK,24,76,887,24,2014-10-01T03:50:00,2,28083915,182955
OK,29,63,887,29,2014-10-01T03:55:00,1,28084357,182955
OK,29,63,887,29,2014-10-01T04:00:00,3,28084782,182955
OK,29,63,887,29,2014-10-01T04:05:00,2,28085230,182955
OK,43,42,887,43,2014-10-01T04:10:00,2,28085675,182955
OK,39,47,887,39,2014-10-01T04:15:00,2,28086124,182955
OK,36,51,887,36,2014-10-01T04:20:00,5,28086566,182955
OK,35,52,887,35,2014-10-01T04:25:00,6,28087015,182955
OK,30,61,887,30,2014-10-01T04:30:00,1,28087460,182955
OK,38,48,887,38,2014-10-01T04:35:00,11,28087909,182955
OK,42,43,887,42,2014-10-01T04:40:00,15,28088334,182955
OK,34,54,887,34,2014-10-01T04:45:00,9,28088782,182955
OK,29,63,887,29,2014-10-01T04:50:00,5,28089212,182955
OK,35,52,887,35,2014-10-01T04:55:00,7,28089661,182955
OK,34,54,887,34,2014-10-01T05:05:00,7,28090110,182955
OK,33,55,887,33,2014-10-01T05:10:00,10,28090903,182955
OK,35,52,887,35,2014-10-01T05:15:00,14,28091352,182955
OK,32,57,887,32,2014-10-01T05:20:00,12,28091769,182955
OK,36,51,887,36,2014-10-01T05:25:00,14,28092218,182955
OK,40,45,887,40,2014-10-01T05:30:00,11,28092662,182955
OK,61,30,887,61,2014-10-01T05:35:00,8,28093103,182955
OK,55,33,887,55,2014-10-01T05:40:00,6,28093534,182955
OK,37,49,887,37,2014-10-01T05:45:00,17,28093983,182955
OK,40,45,887,40,2014-10-01T05:50:00,21,28094395,182955
OK,44,41,887,44,2014-10-01T05:55:00,18,28094839,182955
OK,36,51,887,36,2014-10-01T06:00:00,12,28095286,182955
OK,33,55,887,33,2014-10-01T06:05:00,11,28095735,182955
OK,34,54,887,34,2014-10-01T06:10:00,9,28096148,182955
OK,33,55,887,33,2014-10-01T06:15:00,9,28096597,182955
OK,33,55,887,33,2014-10-01T06:20:00,13,28097031,182955
OK,32,57,887,32,2014-10-01T06:25:00,11,28097480,182955
OK,32,57,887,32,2014-10-01T06:30:00,8,28097929,182955
OK,29,63,887,29,2014-10-01T06:35:00,8,28098367,182955
OK,29,63,887,29,2014-10-01T06:40:00,9,28098810,182955
OK,33,55,887,33,2014-10-01T06:45:00,8,28099258,182955
OK,34,54,887,34,2014-10-01T06:50:00,9,28099601,182955
OK,32,57,887,32,2014-10-01T06:55:00,8,28100050,182955
OK,28,65,887,28,2014-10-01T07:00:00,4,28100357,182955
OK,26,70,887,26,2014-10-01T07:05:00,3,28100806,182955
OK,32,57,887,32,2014-10-01T07:10:00,4,28101177,182955
OK,32,57,887,32,2014-10-01T07:15:00,11,28101626,182955
OK,33,55,887,33,2014-10-01T07:20:00,18,28102062,182955
OK,34,54,887,34,2014-10-01T07:25:00,15,28102511,182955
OK,32,57,887,32,2014-10-01T07:30:00,7,28102941,182955
OK,38,48,887,38,2014-10-01T07:35:00,8,28103385,182955
OK,39,47,887,39,2014-10-01T07:40:00,9,28103830,182955
OK,35,52,887,35,2014-10-01T07:45:00,11,28104275,182955
OK,36,51,887,36,2014-10-01T07:50:00,5,28104717,182955
OK,39,47,887,39,2014-10-01T07:55:00,5,28105161,182955
OK,32,57,887,32,2014-10-01T08:00:00,11,28105601,182955
OK,31,59,887,31,2014-10-01T08:05:00,10,28106050,182955
OK,32,57,887,32,2014-10-01T08:10:00,6,28106487,182955
OK,32,57,887,32,2014-10-01T08:15:00,9,28106893,182955
OK,32,57,887,32,2014-10-01T08:20:00,9,28107325,182955
OK,28,65,887,28,2014-10-01T08:25:00,7,28107774,182955
OK,30,61,887,30,2014-10-01T08:30:00,11,28108213,182955
OK,31,59,887,31,2014-10-01T08:35:00,8,28108662,182955
OK,34,54,887,34,2014-10-01T08:40:00,10,28109090,182955
OK,34,54,887,34,2014-10-01T08:45:00,11,28109539,182955
OK,42,43,887,42,2014-10-01T08:50:00,7,28109882,182955
OK,35,52,887,35,2014-10-01T08:55:00,5,28110331,182955
OK,35,52,887,35,2014-10-01T09:00:00,7,28110754,182955
OK,35,52,887,35,2014-10-01T09:05:00,15,28111203,182955
OK,40,45,887,40,2014-10-01T09:10:00,13,28111632,182955
OK,33,55,887,33,2014-10-01T09:15:00,10,28112081,182955
OK,32,57,887,32,2014-10-01T09:20:00,8,28112422,182955
OK,35,52,887,35,2014-10-01T09:25:00,11,28112871,182955
OK,34,54,887,34,2014-10-01T09:30:00,19,28113295,182955
OK,35,52,887,35,2014-10-01T09:35:00,14,28113744,182955
OK,39,47,887,39,2014-10-01T09:40:00,9,28114176,182955
OK,37,49,887,37,2014-10-01T09:45:00,11,28114625,182955
OK,35,52,887,35,2014-10-01T09:50:00,10,28114979,182955
OK,28,65,887,28,2014-10-01T09:55:00,0,28115428,182955
OK,33,55,887,33,2014-10-01T10:00:00,14,28115840,182955
OK,33,55,887,33,2014-10-01T10:05:00,12,28116289,182955
OK,34,54,887,34,2014-10-01T10:10:00,14,28116697,182955
OK,34,54,887,34,2014-10-01T10:15:00,15,28117146,182955
OK,33,55,887,33,2014-10-01T10:20:00,13,28117571,182955
OK,33,55,887,33,2014-10-01T10:25:00,8,28118020,182955
OK,33,55,887,33,2014-10-01T10:30:00,11,28118465,182955
OK,34,54,887,34,2014-10-01T10:35:00,16,28118912,182955
OK,33,55,887,33,2014-10-01T10:40:00,14,28119356,182955
OK,32,57,887,32,2014-10-01T10:45:00,12,28119804,182955
OK,34,54,887,34,2014-10-01T10:50:00,9,28120252,182955
OK,34,54,887,34,2014-10-01T10:55:00,9,28120701,182955
OK,37,49,887,37,2014-10-01T11:00:00,9,28121084,182955
OK,34,54,887,34,2014-10-01T11:05:00,11,28121533,182955
OK,34,54,887,34,2014-10-01T11:10:00,9,28121971,182955
OK,39,47,887,39,2014-10-01T11:15:00,12,28122420,182955
OK,36,51,887,36,2014-10-01T11:20:00,11,28122861,182955
OK,32,57,887,32,2014-10-01T11:25:00,9,28123310,182955
OK,32,57,887,32,2014-10-01T11:30:00,10,28123742,182955
OK,34,54,887,34,2014-10-01T11:35:00,13,28124191,182955
OK,33,55,887,33,2014-10-01T11:40:00,16,28124593,182955
OK,32,57,887,32,2014-10-01T11:45:00,10,28125042,182955
OK,33,55,887,33,2014-10-01T11:50:00,9,28125471,182955
OK,28,65,887,28,2014-10-01T11:55:00,14,28125920,182955
OK,30,61,887,30,2014-10-01T12:00:00,12,28126272,182955
OK,37,49,887,37,2014-10-01T12:05:00,20,28126721,182955
OK,36,51,887,36,2014-10-01T12:10:00,21,28127170,182955
OK,38,48,887,38,2014-10-01T12:15:00,15,28127619,182955
OK,35,52,887,35,2014-10-01T12:20:00,16,28128047,182955
OK,37,49,887,37,2014-10-01T12:25:00,17,28128496,182955
OK,38,48,887,38,2014-10-01T12:30:00,9,28128931,182955
OK,33,55,887,33,2014-10-01T12:35:00,15,28129380,182955
OK,33,55,887,33,2014-10-01T12:40:00,22,28129814,182955
OK,37,49,887,37,2014-10-01T12:45:00,19,28130263,182955
OK,37,49,887,37,2014-10-01T12:50:00,19,28130691,182955
OK,38,48,887,38,2014-10-01T12:55:00,21,28131140,182955
OK,41,44,887,41,2014-10-01T13:00:00,14,28131577,182955
OK,35,52,887,35,2014-10-01T13:05:00,14,28132026,182955
OK,33,55,887,33,2014-10-01T13:10:00,19,28132464,182955
OK,36,51,887,36,2014-10-01T13:15:00,20,28132911,182955
OK,39,47,887,39,2014-10-01T13:20:00,26,28133349,182955
OK,40,45,887,40,2014-10-01T13:25:00,30,28133798,182955
OK,41,44,887,41,2014-10-01T13:30:00,35,28134237,182955
OK,39,47,887,39,2014-10-01T13:35:00,28,28134686,182955
OK,40,45,887,40,2014-10-01T13:40:00,15,28135105,182955
OK,63,29,887,63,2014-10-01T13:45:00,6,28135554,182955
OK,40,45,887,40,2014-10-01T13:50:00,25,28135991,182955
OK,55,33,887,55,2014-10-01T13:55:00,27,28136440,182955
OK,47,39,887,47,2014-10-01T14:00:00,21,28136880,182955
OK,39,47,887,39,2014-10-01T14:05:00,13,28137329,182955
OK,64,28,887,64,2014-10-01T14:10:00,5,28137763,182955
OK,51,36,887,51,2014-10-01T14:15:00,19,28138212,182955
OK,38,48,887,38,2014-10-01T14:20:00,13,28138640,182955
OK,36,51,887,36,2014-10-01T14:25:00,13,28139089,182955
OK,65,28,887,65,2014-10-01T14:30:00,16,28139500,182955
OK,60,30,887,60,2014-10-01T14:35:00,13,28139949,182955
OK,58,31,887,58,2014-10-01T14:40:00,19,28140391,182955
OK,40,45,887,40,2014-10-01T14:45:00,24,28140840,182955
OK,36,51,887,36,2014-10-01T14:50:00,19,28141266,182955
OK,49,37,887,49,2014-10-01T14:55:00,25,28141715,182955
OK,48,38,887,48,2014-10-01T15:00:00,18,28142143,182955
OK,38,48,887,38,2014-10-01T15:05:00,20,28142592,182955
OK,38,48,887,38,2014-10-01T15:10:00,24,28143019,182955
OK,36,51,887,36,2014-10-01T15:15:00,14,28143468,182955
OK,35,52,887,35,2014-10-01T15:20:00,14,28143916,182955
OK,39,47,887,39,2014-10-01T15:25:00,19,28144365,182955
OK,37,49,887,37,2014-10-01T15:30:00,16,28144787,182955
OK,33,55,887,33,2014-10-01T15:35:00,13,28145200,182955
OK,34,54,887,34,2014-10-01T15:40:00,12,28145649,182955
OK,31,59,887,31,2014-10-01T15:45:00,7,28146098,182955
OK,33,55,887,33,2014-10-01T15:50:00,11,28146547,182955
OK,33,55,887,33,2014-10-01T15:55:00,7,28146956,182955
OK,33,55,887,33,2014-10-01T16:00:00,10,28147399,182955
OK,37,49,887,37,2014-10-01T16:05:00,8,28147848,182955
OK,34,54,887,34,2014-10-01T16:10:00,13,28148249,182955
OK,32,57,887,32,2014-10-01T16:15:00,8,28148698,182955
OK,29,63,887,29,2014-10-01T16:20:00,0,28149137,182955
OK,39,47,887,39,2014-10-01T16:25:00,14,28149586,182955
OK,37,49,887,37,2014-10-01T16:30:00,11,28150012,182955
OK,34,54,887,34,2014-10-01T16:35:00,7,28150461,182955
OK,34,54,887,34,2014-10-01T16:40:00,8,28150879,182955
OK,37,49,887,37,2014-10-01T16:45:00,6,28151328,182955
OK,34,54,887,34,2014-10-01T16:50:00,4,28151777,182955
OK,36,51,887,36,2014-10-01T17:00:00,9,28152226,182955
OK,31,59,887,31,2014-10-01T17:05:00,2,28152672,182955
OK,39,47,887,39,2014-10-01T17:10:00,5,28153119,182955
OK,40,45,887,40,2014-10-01T17:15:00,8,28153568,182955
OK,36,51,887,36,2014-10-01T17:20:00,9,28153978,182955
OK,32,57,887,32,2014-10-01T17:25:00,4,28154427,182955
OK,39,47,887,39,2014-10-01T17:30:00,6,28154869,182955
OK,41,44,887,41,2014-10-01T17:35:00,4,28155317,182955
OK,28,65,887,28,2014-10-01T17:40:00,1,28155735,182955
OK,29,63,887,29,2014-10-01T17:45:00,6,28156184,182955
OK,31,59,887,31,2014-10-01T17:50:00,13,28156633,182955
OK,34,54,887,34,2014-10-01T17:55:00,9,28157071,182955
OK,36,51,887,36,2014-10-01T18:00:00,7,28157501,182955
OK,27,68,887,27,2014-10-01T18:05:00,4,28157949,182955
OK,27,68,887,27,2014-10-01T18:10:00,2,28158393,182955
OK,34,54,887,34,2014-10-01T18:15:00,5,28158839,182955
OK,33,55,887,33,2014-10-01T18:20:00,9,28159285,182955
OK,29,63,887,29,2014-10-01T18:25:00,3,28159620,182955
OK,26,70,887,26,2014-10-01T18:30:00,4,28160069,182955
OK,31,59,887,31,2014-10-01T18:35:00,6,28160518,182955
OK,32,57,887,32,2014-10-01T18:40:00,4,28160956,182955
OK,47,39,887,47,2014-10-01T18:45:00,5,28161405,182955
OK,47,39,887,47,2014-10-01T18:50:00,5,28161822,182955
OK,36,51,887,36,2014-10-01T18:55:00,0,28162271,182955
OK,38,48,887,38,2014-10-01T19:00:00,2,28162666,182955
OK,38,48,887,38,2014-10-01T19:05:00,3,28163104,182955
OK,29,63,887,29,2014-10-01T19:10:00,2,28163552,182955
OK,29,63,887,29,2014-10-01T19:15:00,6,28164001,182955
OK,34,54,887,34,2014-10-01T19:20:00,5,28164432,182955
OK,39,47,887,39,2014-10-01T19:25:00,4,28164881,182955
OK,35,52,887,35,2014-10-01T19:30:00,4,28165306,182955
OK,34,54,887,34,2014-10-01T19:35:00,3,28165754,182955
OK,33,55,887,33,2014-10-01T19:40:00,5,28166195,182955
OK,32,57,887,32,2014-10-01T19:45:00,4,28166557,182955
OK,41,44,887,41,2014-10-01T19:50:00,8,28167006,182955
OK,40,45,887,40,2014-10-01T19:55:00,8,28167435,182955
OK,33,55,887,33,2014-10-01T20:00:00,4,28167869,182955
OK,31,59,887,31,2014-10-01T20:05:00,9,28168317,182955
OK,32,57,887,32,2014-10-01T20:10:00,8,28168762,182955
OK,33,55,887,33,2014-10-01T20:15:00,6,28169211,182955
OK,33,55,887,33,2014-10-01T20:20:00,4,28169659,182955
OK,46,39,887,46,2014-10-01T20:25:00,2,28170085,182955
OK,26,70,887,26,2014-10-01T20:30:00,1,28170530,182955
OK,30,61,887,30,2014-10-01T20:35:00,5,28170978,182955
OK,30,61,887,30,2014-10-01T20:40:00,5,28171415,182955
OK,37,49,887,37,2014-10-01T20:45:00,1,28171861,182955
OK,32,57,887,32,2014-10-01T20:50:00,3,28172309,182955
OK,29,63,887,29,2014-10-01T20:55:00,1,28172755,182955
OK,36,51,887,36,2014-10-01T21:00:00,1,28173201,182955
OK,33,55,887,33,2014-10-01T21:05:00,6,28173650,182955
OK,33,55,887,33,2014-10-01T21:10:00,4,28174091,182955
OK,33,55,887,33,2014-10-01T21:15:00,3,28174540,182955
OK,33,55,887,33,2014-10-01T21:20:00,3,28174966,182955
OK,29,63,887,29,2014-10-01T21:25:00,1,28175362,182955
OK,29,63,887,29,2014-10-01T21:30:00,1,28175811,182955
OK,29,63,887,29,2014-10-01T21:35:00,0,28176260,182955
OK,29,63,887,29,2014-10-01T21:40:00,0,28176709,182955
OK,29,63,887,29,2014-10-01T21:45:00,0,28177066,182955
OK,19,96,887,19,2014-10-01T21:50:00,1,28177505,182955
OK,21,87,887,21,2014-10-01T21:55:00,2,28177951,182955
OK,24,76,887,24,2014-10-01T22:00:00,0,28178400,182955
OK,24,76,887,24,2014-10-01T22:05:00,0,28178847,182955
OK,24,76,887,24,2014-10-01T22:10:00,0,28179281,182955
OK,24,76,887,24,2014-10-01T22:15:00,0,28179724,182955
OK,24,76,887,24,2014-10-01T22:20:00,0,28180171,182955
OK,27,68,887,27,2014-10-01T22:25:00,1,28180569,182955
OK,22,83,887,22,2014-10-01T22:30:00,2,28181018,182955
OK,18,102,887,18,2014-10-01T22:35:00,0,28181442,182955
OK,18,102,887,18,2014-10-01T22:40:00,0,28181890,182955
OK,18,102,887,18,2014-10-01T22:45:00,0,28182337,182955
OK,18,102,887,18,2014-10-01T22:50:00,0,28182786,182955
OK,18,102,887,18,2014-10-01T22:55:00,0,28183203,182955
OK,27,68,887,27,2014-10-01T23:00:00,1,28183636,182955
OK,27,68,887,27,2014-10-01T23:05:00,0,28184081,182955
OK,27,68,887,27,2014-10-01T23:10:00,0,28184530,182955
OK,27,68,887,27,2014-10-01T23:15:00,0,28184965,182955
OK,27,68,887,27,2014-10-01T23:20:00,0,28185413,182955
OK,27,68,887,27,2014-10-01T23:25:00,0,28185844,182955
OK,27,68,887,27,2014-10-01T23:30:00,0,28186236,182955
OK,27,68,887,27,2014-10-01T23:40:00,0,28187083,182955
OK,27,68,887,27,2014-10-01T23:55:00,0,28188415,182955
OK,27,68,887,27,2014-10-02T00:00:00,0,28188851,182955
OK,27,68,887,27,2014-10-02T00:05:00,0,28189300,182955
OK,27,68,887,27,2014-10-02T00:10:00,0,28189722,182955
OK,27,68,887,27,2014-10-02T00:15:00,0,28190171,182955
OK,27,68,887,27,2014-10-02T00:20:00,0,28190524,182955
OK,27,68,887,27,2014-10-02T00:25:00,0,28190973,182955
OK,27,68,887,27,2014-10-02T00:30:00,0,28191422,182955
OK,27,68,887,27,2014-10-02T00:35:00,0,28191728,182955
OK,27,68,887,27,2014-10-02T00:40:00,0,28192177,182955
OK,27,68,887,27,2014-10-02T00:45:00,0,28192610,182955
OK,27,68,887,27,2014-10-02T00:50:00,0,28193054,182955
OK,27,68,887,27,2014-10-02T00:55:00,0,28193421,182955
OK,27,68,887,27,2014-10-02T01:05:00,0,28194319,182955
OK,27,68,887,27,2014-10-02T01:15:00,0,28194768,182955
OK,27,68,887,27,2014-10-02T01:20:00,0,28195453,182955
OK,27,68,887,27,2014-10-02T01:30:00,0,28195902,182955
OK,27,68,887,27,2014-10-02T01:35:00,0,28196635,182955
OK,27,68,887,27,2014-10-02T01:40:00,0,28197058,182955
OK,27,68,887,27,2014-10-02T01:45:00,0,28197507,182955
OK,27,68,887,27,2014-10-02T01:50:00,0,28197955,182955
OK,27,68,887,27,2014-10-02T01:55:00,0,28198403,182955
OK,27,68,887,27,2014-10-02T02:00:00,0,28198852,182955
OK,27,68,887,27,2014-10-02T02:05:00,0,28199226,182955
OK,27,68,887,27,2014-10-02T02:10:00,0,28199666,182955
OK,27,68,887,27,2014-10-02T02:15:00,0,28200108,182955
OK,27,68,887,27,2014-10-02T02:20:00,0,28200551,182955
OK,27,68,887,27,2014-10-02T02:25:00,0,28201000,182955
OK,27,68,887,27,2014-10-02T02:30:00,0,28201431,182955
OK,27,68,887,27,2014-10-02T02:45:00,0,28202329,182955
OK,27,68,887,27,2014-10-02T02:50:00,0,28202771,182955
OK,27,68,887,27,2014-10-02T02:55:00,0,28203219,182955
OK,27,68,887,27,2014-10-02T03:00:00,0,28203654,182955
OK,27,68,887,27,2014-10-02T03:10:00,0,28204103,182955
OK,24,76,887,24,2014-10-02T03:25:00,3,28204552,182955
OK,24,76,887,24,2014-10-02T03:30:00,0,28205001,182955
OK,20,91,887,20,2014-10-02T03:35:00,2,28205429,182955
OK,19,96,887,19,2014-10-02T03:40:00,0,28205876,182955
OK,30,61,887,30,2014-10-02T03:45:00,0,28206259,182955
OK,30,61,887,30,2014-10-02T03:55:00,0,28207157,182955
OK,28,65,887,28,2014-10-02T04:00:00,1,28207577,182955
OK,28,65,887,28,2014-10-02T04:05:00,0,28208025,182955
OK,32,57,887,32,2014-10-02T04:10:00,3,28208452,182955
OK,32,57,887,32,2014-10-02T04:15:00,0,28208901,182955
OK,21,87,887,21,2014-10-02T04:20:00,2,28209339,182955
OK,16,114,887,16,2014-10-02T04:25:00,0,28209788,182955
OK,33,55,887,33,2014-10-02T04:30:00,7,28210211,182955
OK,31,59,887,31,2014-10-02T04:35:00,3,28210660,182955
OK,30,61,887,30,2014-10-02T04:40:00,8,28211085,182955
OK,29,63,887,29,2014-10-02T04:45:00,2,28211529,182955
OK,29,63,887,29,2014-10-02T04:50:00,0,28211907,182955
OK,33,55,887,33,2014-10-02T04:55:00,11,28212356,182955
OK,31,59,887,31,2014-10-02T05:00:00,5,28212785,182955
OK,35,52,887,35,2014-10-02T05:05:00,11,28213234,182955
OK,28,65,887,28,2014-10-02T05:10:00,0,28213672,182955
OK,34,54,887,34,2014-10-02T05:15:00,7,28214121,182955
OK,33,55,887,33,2014-10-02T05:20:00,4,28214534,182955
OK,38,48,887,38,2014-10-02T05:25:00,13,28214983,182955
OK,37,49,887,37,2014-10-02T05:30:00,2,28215399,182955
OK,40,45,887,40,2014-10-02T05:40:00,8,28215848,182955
OK,35,52,887,35,2014-10-02T05:45:00,1,28216627,182955
OK,35,52,887,35,2014-10-02T05:50:00,0,28217074,182955
OK,49,37,887,49,2014-10-02T05:55:00,17,28217523,182955
OK,44,41,887,44,2014-10-02T06:00:00,15,28217962,182955
OK,56,32,887,56,2014-10-02T06:05:00,5,28218411,182955
OK,35,52,887,35,2014-10-02T06:10:00,1,28218831,182955
OK,35,52,887,35,2014-10-02T06:15:00,13,28219280,182955
OK,34,54,887,34,2014-10-02T06:20:00,14,28219653,182955
OK,38,48,887,38,2014-10-02T06:25:00,19,28220102,182955
OK,36,51,887,36,2014-10-02T06:30:00,16,28220536,182955
OK,33,55,887,33,2014-10-02T06:35:00,15,28220985,182955
OK,34,54,887,34,2014-10-02T06:40:00,17,28221368,182955
OK,31,59,887,31,2014-10-02T06:45:00,10,28221652,182955
OK,35,52,887,35,2014-10-02T07:00:00,9,28222246,182955
OK,29,63,887,29,2014-10-02T07:05:00,8,28222695,182955
OK,30,61,887,30,2014-10-02T07:10:00,7,28223126,182955
OK,76,24,887,76,2014-10-02T07:15:00,3,28223562,182955
OK,77,23,887,77,2014-10-02T07:20:00,0,28224009,182955
OK,33,55,887,33,2014-10-02T07:25:00,7,28224364,182955
OK,41,44,887,41,2014-10-02T07:30:00,0,28224813,182955
OK,32,57,887,32,2014-10-02T07:35:00,3,28225262,182955
OK,33,55,887,33,2014-10-02T07:40:00,1,28225584,182955
OK,36,51,887,36,2014-10-02T07:50:00,14,28226474,182955
OK,34,54,887,34,2014-10-02T07:55:00,17,28226923,182955
OK,34,54,887,34,2014-10-02T08:00:00,6,28227338,182955
OK,41,44,887,41,2014-10-02T08:05:00,9,28227787,182955
OK,71,25,887,71,2014-10-02T08:10:00,0,28228146,182955
OK,34,54,887,34,2014-10-02T08:15:00,8,28228595,182955
OK,34,54,887,34,2014-10-02T08:20:00,3,28229005,182955
OK,30,61,887,30,2014-10-02T08:25:00,9,28229454,182955
OK,26,70,887,26,2014-10-02T08:30:00,2,28229804,182955
OK,35,52,887,35,2014-10-02T08:35:00,10,28230253,182955
OK,42,43,887,42,2014-10-02T08:40:00,3,28230620,182955
OK,42,43,887,42,2014-10-02T08:45:00,0,28231068,182955
OK,33,55,887,33,2014-10-02T08:50:00,5,28231491,182955
OK,33,55,887,33,2014-10-02T08:55:00,2,28231940,182955
OK,32,57,887,32,2014-10-02T09:00:00,5,28232282,182955
OK,30,61,887,30,2014-10-02T09:10:00,0,28232731,182955
OK,36,51,887,36,2014-10-02T09:15:00,13,28233180,182955
OK,31,59,887,31,2014-10-02T09:20:00,3,28233604,182955
OK,40,45,887,40,2014-10-02T09:25:00,9,28234053,182955
OK,32,57,887,32,2014-10-02T09:30:00,3,28234386,182955
OK,33,55,887,33,2014-10-02T09:35:00,14,28234835,182955
OK,28,65,887,28,2014-10-02T09:40:00,3,28235262,182955
OK,35,52,887,35,2014-10-02T09:45:00,14,28235711,182955
OK,36,51,887,36,2014-10-02T09:50:00,5,28236154,182955
OK,33,55,887,33,2014-10-02T09:55:00,11,28236601,182955
OK,32,57,887,32,2014-10-02T10:00:00,4,28237004,182955
OK,33,55,887,33,2014-10-02T10:05:00,0,28237452,182955
OK,35,52,887,35,2014-10-02T10:10:00,15,28237900,182955
OK,32,57,887,32,2014-10-02T10:15:00,15,28238347,182955
OK,34,54,887,34,2014-10-02T10:20:00,10,28238788,182955
OK,34,54,887,34,2014-10-02T10:25:00,5,28239237,182955
OK,35,52,887,35,2014-10-02T10:30:00,1,28239667,182955
OK,34,54,887,34,2014-10-02T10:35:00,11,28240116,182955
OK,33,55,887,33,2014-10-02T10:40:00,12,28240560,182955
OK,34,54,887,34,2014-10-02T10:45:00,26,28241009,182955
OK,34,54,887,34,2014-10-02T10:50:00,17,28241441,182955
OK,29,63,887,29,2014-10-02T10:55:00,7,28241889,182955
OK,31,59,887,31,2014-10-02T11:00:00,3,28242285,182955
OK,31,59,887,31,2014-10-02T11:05:00,0,28242734,182955
OK,33,55,887,33,2014-10-02T11:15:00,9,28243183,182955
OK,30,61,887,30,2014-10-02T11:20:00,8,28243946,182955
OK,25,73,887,25,2014-10-02T11:25:00,2,28244375,182955
OK,24,76,887,24,2014-10-02T11:30:00,0,28244824,182955
OK,35,52,887,35,2014-10-02T11:35:00,17,28245273,182955
OK,35,52,887,35,2014-10-02T11:40:00,6,28245679,182955
OK,37,49,887,37,2014-10-02T11:45:00,0,28246128,182955
OK,34,54,887,34,2014-10-02T11:50:00,15,28246565,182955
OK,34,54,887,34,2014-10-02T11:55:00,12,28247014,182955
OK,35,52,887,35,2014-10-02T12:00:00,14,28247460,182955
OK,35,52,887,35,2014-10-02T12:05:00,9,28247890,182955
OK,36,51,887,36,2014-10-02T12:10:00,0,28248339,182955
OK,33,55,887,33,2014-10-02T12:15:00,14,28248786,182955
OK,36,51,887,36,2014-10-02T12:20:00,10,28249214,182955
OK,36,51,887,36,2014-10-02T12:25:00,15,28249658,182955
OK,33,55,887,33,2014-10-02T12:30:00,6,28250077,182955
OK,35,52,887,35,2014-10-02T12:35:00,13,28250475,182955
OK,34,54,887,34,2014-10-02T12:45:00,11,28251255,182955
OK,56,32,887,56,2014-10-02T13:20:00,18,28251800,182955
OK,38,48,887,38,2014-10-02T13:30:00,19,28252384,182955
OK,40,45,887,40,2014-10-02T13:35:00,7,28252826,182955
OK,38,48,887,38,2014-10-02T13:40:00,0,28253243,182955
OK,63,29,887,63,2014-10-02T13:45:00,26,28253692,182955
OK,65,28,887,65,2014-10-02T13:50:00,16,28254097,182955
OK,59,31,887,59,2014-10-02T13:55:00,30,28254418,182955
OK,70,26,887,70,2014-10-02T14:10:00,19,28254995,182955
OK,72,25,887,72,2014-10-02T14:15:00,29,28255444,182955
OK,73,25,887,73,2014-10-02T14:20:00,20,28255872,182955
OK,81,22,887,81,2014-10-02T14:25:00,6,28256321,182955
OK,68,27,887,68,2014-10-02T14:30:00,15,28256749,182955
OK,54,34,887,54,2014-10-02T14:35:00,17,28257198,182955
OK,49,37,887,49,2014-10-02T14:40:00,12,28257639,182955
OK,34,54,887,34,2014-10-02T14:45:00,17,28258087,182955
OK,44,41,887,44,2014-10-02T14:50:00,17,28258520,182955
OK,52,35,887,52,2014-10-02T14:55:00,17,28258966,182955
OK,44,41,887,44,2014-10-02T15:00:00,12,28259415,182955
OK,38,48,887,38,2014-10-02T15:05:00,13,28259862,182955
OK,37,49,887,37,2014-10-02T15:10:00,12,28260295,182955
OK,37,49,887,37,2014-10-02T15:15:00,19,28260744,182955
OK,37,49,887,37,2014-10-02T15:20:00,11,28261184,182955
OK,43,42,887,43,2014-10-02T15:25:00,17,28261566,182955
OK,41,44,887,41,2014-10-02T15:30:00,10,28261996,182955
OK,36,51,887,36,2014-10-02T15:40:00,8,28262889,182955
OK,36,51,887,36,2014-10-02T15:45:00,10,28263327,182955
OK,36,51,887,36,2014-10-02T15:50:00,6,28263768,182955
OK,48,38,887,48,2014-10-02T15:55:00,0,28264170,182955
OK,48,38,887,48,2014-10-02T16:00:00,0,28264619,182955
OK,33,55,887,33,2014-10-02T16:05:00,11,28265057,182955
OK,31,59,887,31,2014-10-02T16:10:00,8,28265497,182955
OK,32,57,887,32,2014-10-02T16:15:00,3,28265893,182955